Regional Weather Roundup
Issued by NWS

Home | Current Version | Previous Version | Graphics & Text | Print | Product List | Glossary Off
Versions: 1 2 3 4 5 6 7 8 9 10 11 12 13 14 15 16 17 18 19 20 21 22 23 24 25 26 27 28 29 30 31 32 33 34 35 36 37 38 39 40 41 42 43 44 45 46 47 48 49 50

000
ASUS43 KMPX 272101
RWRMN
WEATHER ROUNDUP FOR MINNESOTA
NATIONAL WEATHER SERVICE TWIN CITIES/CHANHASSEN MN
400 PM CDT SUN JUL 27 2014


NOTE: "FAIR" INDICATES FEW OR NO CLOUDS BELOW 12,000 FEET WITH NO
SIGNIFICANT WEATHER AND/OR OBSTRUCTIONS TO VISIBILITY. N/A MEANS
CURRENT SKY AND/OR WEATHER CONDITIONS ARE NOT AVAILABLE.

MNZ060>063-068>070-272200-
   Twin Cities Metro

CITY           SKY/WX    TMP DP  RH WIND       PRES   REMARKS
TWIN CITIES    PTSUNNY   77  59  53 NW21G28   29.94R
ST PAUL        MOSUNNY   75  59  57 N18G26    29.94R
CRYSTAL        MOSUNNY   76  57  51 NW16G23   29.95R
BLAINE         PTSUNNY   75  59  57 NW16G29   29.95R
LAKEVILLE      PTSUNNY   73  59  60 N16G23    29.95R
EDEN PRAIRIE   MOSUNNY   78  59  51 N18G29    29.94R
SOUTH ST PAUL  MOSUNNY   77  59  54 N12G21    29.94S
LAKE ELMO      CLOUDY    70  61  73 N10G20    29.97R
$$
MNZ001>005-007-008-013>017-022>024-027-028-272200-
   Northwest Minnesota

CITY           SKY/WX    TMP DP  RH WIND       PRES   REMARKS
BEMIDJI        CLOUDY    66  57  72 N8        30.09R
HALLOCK        MOSUNNY   66  57  72 N8        30.16S
ROSEAU         PTSUNNY   66  57  72 N9        30.14R
WARROAD        CLOUDY    66  55  68 N8        30.13S
THIEF RVR FALL CLOUDY    64  57  77 NW9       30.14R
CROOKSTON      CLOUDY    66  57  72 N14       30.15S
FOSSTON        CLOUDY    63  57  82 NW13      30.13R
DETROIT LAKES  PTSUNNY   66  59  77 NW15G23   30.12R
MOORHEAD       CLOUDY    66  61  82 N14       30.14R
PARK RAPIDS    CLOUDY    67  59  75 N14       30.07R
$$
MNZ006-009>011-018-025>026-272200-
   North Central Minnesota

CITY           SKY/WX    TMP DP  RH WIND       PRES   REMARKS
BAUDETTE       CLOUDY    69  52  54 N10       30.12R
FLAG ISLAND    CLOUDY    68  50  52 N13G18    30.12R
INTL FALLS     CLOUDY    68  51  54 N9G16     30.07R
WASKISH        CLOUDY    66  57  72 CALM      30.10S
BIG FORK       PTSUNNY   64  55  72 VRB6      30.08R
LONGVILLE      MOSUNNY   70  57  64 NE7       30.06R
GRAND RAPIDS   CLOUDY    64  55  72 N16       30.06R
CRANE LAKE     CLOUDY    64  54  68 N7        30.06S
ORR            CLOUDY    64  54  68 NW3       30.04R
COOK           CLOUDY    64  55  72 N3        30.06R
$$
MNZ012-019>021-037-272200-
   Northeast Minnesota

CITY           SKY/WX    TMP DP  RH WIND       PRES   REMARKS
DULUTH         DRIZZLE   59  54  83 E9        30.03R FOG
ELY            PTSUNNY   64  52  63 N7        30.03R
HIBBING        CLOUDY    65  55  70 N12G21    30.05R
EVELETH        CLOUDY    63  54  72 N7        30.05R
DULUTH HARBOR  CLOUDY    57  54  88 N6        30.03R
TWO HARBORS    CLOUDY    61  54  77 E3        30.00R
SILVER BAY     SUNNY     61  57  88 CALM      29.99R
GRAND MARAIS     N/A     72  51  47 NE8       29.95R
G MARAIS ARPRT   N/A     64  48  55 N15       30.00R
$$
MNZ029>031-032-039>041-046>048-054>057-064-272200-
   West Central Minnesota

CITY           SKY/WX    TMP DP  RH WIND       PRES   REMARKS
FERGUS FALLS   MOSUNNY   70  55  60 NW17G24   30.11S
MORRIS         SUNNY     70  57  64 NW18G26   30.09S
ALEXANDRIA     CLOUDY    69  57  65 N17G25    30.09R
ELBOW LAKE     CLOUDY    67  58  73 NW21      30.11R
WADENA         MOSUNNY   72  59  64 NW9G16    30.05S
GLENWOOD       MOSUNNY   73  61  64 NW18G25   30.07S
APPLETON       PTSUNNY   70  57  64 NW20      30.10S
BENSON         MOSUNNY   72  57  60 N20G25    30.08S
ORTONVILLE     CLOUDY    66  55  68 NW14      30.13R
MADISON        SUNNY     72  61  68 N17G23    30.12R
WILLMAR        FAIR      72  57  60 NW22G28   30.07R
$$
MNZ033>034-036-042>043-049>051-058-059-272200-
   Central Minnesota

CITY           SKY/WX    TMP DP  RH WIND       PRES   REMARKS
ST CLOUD       MOSUNNY   75  57  53 NW14G21   29.99R
SAUK CENTRE    FAIR      72  59  63 NW20G26   30.05R
PAYNESVILLE    PTSUNNY   72  58  62 W13G25    30.04R
AITKIN         LGT RAIN  66  59  77 N10G23    30.02R
PINE RIVER     PTSUNNY   72  57  60 N15G23    30.08R
BRAINERD       PTSUNNY   71  56  58 N17G26    30.03R
STAPLES        CLOUDY    63  59  88 N8        30.05R
LONG PRAIRIE   FAIR      72  59  64 NW12G22   30.05R
LITTLE FALLS   MOSUNNY   73  55  53 NW7G18    30.01S
LITCHFIELD     MOSUNNY   73  63  68 NW15G23   30.03R
BUFFALO        CLOUDY    76  58  53 NW12G17   29.99R
MAPLE LAKE     PTSUNNY   74  57  56 N15G22    30.00R
$$
MNZ037-044-045-052-053-272200-
   East Central Minnesota

CITY           SKY/WX    TMP DP  RH WIND       PRES   REMARKS
PRINCETON      RAIN      72  61  68 N17G28    30.00R
MORA           CLOUDY    64  61  88 CALM      30.02R
CAMBRIDGE      LGT RAIN  70  59  68 N7        29.97R
RUSH CITY      CLOUDY    68  60  74 N13       29.99R
MOOSE LAKE     CLOUDY    59  55  88 NE6       30.02R
HINCKLEY       CLOUDY    66  59  77 N14       30.00R
CLOQUET        DRIZZLE   57  55  94 E8        30.04R
MCGREGOR       CLOUDY    63  59  88 E7        30.04R
$$
MNZ071>073-080-081-089-090-097-098-272200-
   Southwest Minnesota

CITY           SKY/WX    TMP DP  RH WIND       PRES   REMARKS
MONTEVIDEO     MOSUNNY   73  61  64 N17G25    30.10R
GRANITE FALLS  PTSUNNY   71  60  67 NW20G25   30.10R
CANBY          CLOUDY    70  57  63 NW15G22   30.14R
MARSHALL       CLOUDY    70  55  60 NW20G26   30.09S
REDWOOD FALLS  PTSUNNY   74  59  59 NW16G28   30.05R
OLIVIA         PTSUNNY   73  59  60 NW18G28   30.04S
PIPESTONE      CLOUDY    70  55  60 N18G25    30.14S
WINDOM         MOSUNNY   70  57  64 NW23G31   30.07F
WORTHINGTON    CLOUDY    70  55  60 NW21G28   30.12S
JACKSON        MOSUNNY   70  55  60 NW21G29   30.08S
TRACY          MOSUNNY   70  59  67 NW20      30.11S
SLAYTON        CLOUDY    69  55  62 NW22G31   30.13R
$$
MNZ065>067-074>077-082>085-091>093-272200-
   South Central Minnesota

CITY           SKY/WX    TMP DP  RH WIND       PRES   REMARKS
MANKATO        CLOUDY    73  57  56 NW20G26   29.99S
NEW ULM        MOSUNNY   73  61  64 NW18G30   30.01S
ST JAMES       MOSUNNY   73  57  56 NW16G30   30.04S
FAIRMONT       PTSUNNY   72  55  56 NW23      30.03S
GLENCOE        SUNNY     73  60  63 NW12G20   29.99S
FARIBAULT      MOSUNNY   79  54  41 NW13G22   29.96S
OWATONNA       MOSUNNY   75  57  53 NW15G22   29.96S
WASECA         MOSUNNY   72  55  56 NW16G24   30.00R
ALBERT LEA     MOSUNNY   70  61  73 NW9G18    29.98S
$$
MNZ078>079-086>088-094>096-272200-
   Southeast Minnesota

CITY           SKY/WX    TMP DP  RH WIND       PRES   REMARKS
ROCHESTER      PTSUNNY   74  59  59 NW16G24   29.95R
RED WING       SUNNY     75  57  53 NW13G21   29.92R
STANTON        PTSUNNY   78  58  50 NW17      29.93S
DODGE CENTER   MOSUNNY   73  59  60 N21G26    29.95R
WINONA         PTSUNNY   73  59  60 NW20G25   29.89R
AUSTIN         PTSUNNY   73  61  64 NW17G26   29.95S
PRESTON        CLOUDY    71  62  73 NW20G28   29.93R
$$
ABBREVIATIONS USED IN REMARKS
   TC - TEMPERATURES IN CELSIUS
  WCI - WIND CHILL INDEX
   HX - HEAT INDEX
  VSB - VISIBILITY
$$



USA.gov is the U.S. government's official web portal to all federal, state and local government web resources and services.